Location: Blairvadach
(56.2780°N, 6.9720°W)
Time: 12:41:15
(UTC+01:00)

OTV 5 (USA 277) - Pass Details

Date: 29 April 2019
Orbit: 310 x 325 km, 54.5° (Epoch: 08 May)

Event Time Altitude Azimuth Distance (km) Brightness Sun altitude
Rises 21:47:11 0° 248° (WSW) 2,037 ? -5.9°
Reaches altitude 10° 21:49:10 10° 242° (WSW) 1,208 ? -6.1°
Maximum altitude 21:51:45 46° 167° (SSE) 433 ? -6.4°
Drops below altitude 10° 21:54:20 10° 92° (E) 1,209 ? -6.7°
Enters shadow 21:55:23 - 88° (E) 1,638 ? -6.8°
